Location: Deneb Observatory
(47.2267°N, 100.4953°W)
Time: 04:58:12
(UTC-05:00)

Iridium 66 - Visible Passes

Search period start: 27 August 2016 00:00
Search period end: 06 September 2016 00:00
Orbit: 776 x 779 km, 86.4° (Epoch: 26 August)

Date Brightness Start Highest point End Pass type
(mag) Time Alt. Az. Time Alt. Az. Time Alt. Az.
27 Aug 8.6 00:52:22 10° ENE 00:52:22 10° ENE 00:52:46 10° ENE visible
27 Aug 6.8 02:32:51 50° NNE 02:32:51 50° NNE 02:36:42 10° N visible
27 Aug 8.0 04:13:20 15° WNW 04:13:20 15° WNW 04:15:57 10° NNW visible
28 Aug 7.3 01:59:32 35° NE 01:59:32 35° NE 02:02:59 10° NNE visible
28 Aug 7.6 03:40:01 24° NW 03:40:01 24° NW 03:43:19 10° NNW visible
29 Aug 7.9 01:26:13 22° NE 01:26:13 22° NE 01:28:59 10° NNE visible
29 Aug 7.2 03:06:42 35° NW 03:06:42 35° NW 03:10:12 10° N visible
30 Aug 8.4 00:52:54 14° ENE 00:52:54 14° ENE 00:54:26 10° NE visible
30 Aug 7.1 02:33:22 42° N 02:33:22 42° N 02:36:49 10° N visible
30 Aug 8.3 04:13:51 11° WNW 04:13:51 11° WNW 04:14:46 10° NW visible
31 Aug 7.4 02:00:03 36° NNE 02:00:03 36° NNE 02:03:13 10° N visible
31 Aug 8.0 03:40:31 18° NW 03:40:31 18° NW 03:42:58 10° NNW visible
01 Sep 7.8 01:26:43 26° NE 01:26:43 26° NE 01:29:24 10° NNE visible
01 Sep 7.7 03:07:11 26° NW 03:07:11 26° NW 03:10:05 10° NNW visible
02 Sep 8.2 00:53:23 17° NE 00:53:23 17° NE 00:55:14 10° NNE visible
02 Sep 7.5 02:33:51 33° NNW 02:33:51 33° NNW 02:36:51 10° N visible
03 Sep 8.6 00:20:02 10° NE 00:20:02 10° NE 00:20:12 10° NE visible
03 Sep 7.5 02:00:31 34° N 02:00:31 34° N 02:03:23 10° N visible
03 Sep 8.3 03:40:59 13° NW 03:40:59 13° NW 03:42:18 10° NW visible
04 Sep 7.8 01:27:10 27° NNE 01:27:10 27° NNE 01:29:42 10° NNE visible
04 Sep 8.0 03:07:38 19° NW 03:07:38 19° NW 03:09:51 10° NNW visible
05 Sep 8.1 00:53:49 20° NE 00:53:49 20° NE 00:55:45 10° NNE visible
05 Sep 7.8 02:34:17 25° NNW 02:34:17 25° NNW 02:36:48 10° N visible
